This is the latest recevied weather packets stored in our database for station/object OH2EGI-2. If no packets are shown the sender has not sent any weather packets the latest 10 day(s).
| Time | Temp. | Humidity | Pressure | Rain* | Wind** | Luminosity | Snow |
|---|---|---|---|---|---|---|---|
| 1777885000 | 13.33° C | 49% | 995.8 hPa | 0 mm | - | - | - |
| 1777884700 | 13.89° C | 48% | 995.9 hPa | 0 mm | - | - | - |
| 1777884400 | 13.89° C | 47% | 995.8 hPa | 0 mm | - | - | - |
| 1777884100 | 13.89° C | 47% | 995.9 hPa | 0 mm | - | - | - |
| 1777883800 | 13.89° C | 47% | 996 hPa | 0 mm | - | - | - |
| 1777883500 | 13.89° C | 46% | 996 hPa | 0 mm | - | - | - |
| 1777883200 | 14.44° C | 46% | 996 hPa | 0 mm | - | - | - |
| 1777882900 | 14.44° C | 46% | 996 hPa | 0 mm | - | - | - |
| 1777882600 | 14.44° C | 46% | 996 hPa | 0 mm | - | - | - |
| 1777882300 | 14.44° C | 46% | 996 hPa | 0 mm | - | - | - |
| 1777882000 | 14.44° C | 45% | 996 hPa | 0 mm | - | - | - |
| 1777881701 | 14.44° C | 45% | 996 hPa | 0 mm | - | - | - |
| 1777881400 | 14.44° C | 45% | 996 hPa | 0 mm | - | - | - |
| 1777881100 | 14.44° C | 45% | 996 hPa | 0 mm | - | - | - |
| 1777880800 | 15° C | 44% | 995.8 hPa | 0 mm | - | - | - |
| 1777880501 | 15° C | 44% | 995.8 hPa | 0 mm | - | - | - |
| 1777880200 | 15.56° C | 43% | 995.9 hPa | 0 mm | - | - | - |
| 1777879900 | 16.11° C | 42% | 995.9 hPa | 0 mm | - | - | - |
| 1777879601 | 16.67° C | 41% | 995.8 hPa | 0 mm | - | - | - |
| 1777879301 | 16.67° C | 40% | 995.7 hPa | 0 mm | - | - | - |
| 1777879001 | 17.22° C | 40% | 995.8 hPa | 0 mm | - | - | - |
| 1777878701 | 17.78° C | 39% | 995.7 hPa | 0 mm | - | - | - |
| 1777878401 | 18.89° C | 37% | 995.9 hPa | 0 mm | - | - | - |
| 1777878101 | 20° C | 36% | 995.8 hPa | 0 mm | - | - | - |
| 1777877801 | 21.11° C | 37% | 995.9 hPa | 0 mm | - | - | - |
* Rain latest hour (hover to see other rain measurements)
** Current wind speed in m/s (hover to see current wind gust speed)